This demonstration page uses our WeatherBlox Daily Observations layout. Learn more.

Left ArrowRight Arrow

41.86663, -103.66717

Hourly Observations for July 31, 2021

Temp ( °F °C ) Dew Point ( °F °C ) Humidity (%) Winds ( mph kmh ) Pressure ( in mb ) Visibility ( mi km ) Precip ( " mm )
12:53 am 00:53 Clear 71 21.7 61 16.1 71 71 NNE 12 19 30.07 1018 8 13 N/A
1:53 am 01:53 Mostly Cloudy 71 21.7 60 15.6 68 68 WNW 3 6 30.09 1019 8 13 N/A
2:53 am 02:53 Mostly Cloudy 70 21.1 61 16.1 73 73 W 3 6 30.12 1020 9 14 N/A
3:53 am 03:53 Cloudy 68 20 63 17.2 84 84 N 3 6 30.11 1020 10 16 0.00 0.00
4:53 am 04:53 Cloudy with Light Rain 67 19.4 63 17.2 87 87 N N/A 30.12 1020 8 13 0.00 0.00
5:53 am 05:53 Cloudy with Light Rain 67 19.4 63 17.2 87 87 N 3 6 30.12 1020 8 13 0.00 0.00
6:53 am 06:53 Cloudy with Haze 68 20 63 17.2 84 84 NNE 6 9 30.13 1020 5 8 0.00 0.00
7:07 am 07:07 Cloudy with Haze 68 20 62 16.7 81 81 ENE 5 7 30.09 1019 2 3 N/A
7:53 am 07:53 Cloudy with Haze 69 20.6 60 15.6 73 73 NNW 6 9 30.14 1021 3 4 N/A
8:53 am 08:53 Cloudy with Haze 70 21.1 60 15.6 71 71 N 6 9 30.17 1022 3 4 N/A
9:53 am 09:53 Mostly Cloudy with Haze 72 22.2 60 15.6 66 66 NNE 5 7 30.20 1023 3 4 N/A
10:11 am 10:11 Mostly Cloudy with Haze 72 22.2 61 16.1 68 68 NE 3 6 30.12 1020 3 4 N/A
10:53 am 10:53 Cloudy with Haze 72 22.2 61 16.1 68 68 N 6 9 30.22 1023 3 5 N/A
11:53 am 11:53 Cloudy with Haze 73 22.8 61 16.1 66 66 E 5 7 30.23 1024 3 5 N/A
12:53 pm 12:53 Mostly Cloudy with Haze 75 23.9 60 15.6 60 60 ESE 5 7 30.22 1023 5 8 N/A
1:53 pm 13:53 Hazy 78 25.6 58 14.4 50 50 SE 10 17 30.20 1023 5 8 N/A
2:53 pm 14:53 Hazy 81 27.2 58 14.4 45 45 ESE 9 15 30.19 1022 5 8 N/A
3:53 pm 15:53 Sunny 83 28.3 54 12.2 37 37 ESE 12 19 30.16 1022 7 11 N/A
4:53 pm 16:53 Sunny 84 28.9 53 11.7 34 34 SE 13 20 30.15 1021 7 11 N/A
5:53 pm 17:53 Mostly Sunny 83 28.3 54 12.2 37 37 SSE 12 19 30.14 1021 8 13 N/A
6:53 pm 18:53 Sunny 81 27.2 54 12.2 39 39 SE 10 17 30.15 1021 7 11 N/A
7:53 pm 19:53 Hazy 75 23.9 57 13.9 54 54 ESE 6 9 30.17 1022 6 10 N/A
8:53 pm 20:53 Mostly Clear 69 20.6 58 14.4 68 68 E 5 7 30.20 1023 7 11 N/A
9:53 pm 21:53 Mostly Clear 69 20.6 57 13.9 66 66 N N/A 30.21 1023 7 11 N/A
10:53 pm 22:53 Clear 67 19.4 56 13.3 68 68 E 7 11 30.22 1024 7 11 N/A
11:53 pm 23:53 Clear 65 18.3 55 12.8 70 70 N 3 6 30.22 1024 7 11 N/A

Powered by AerisWeather